Newport Airport, OR

11:29 AM PDT on May 26, 2018 (GMT -0700)
Newport Municipal

Weather History for KONP - March, 2014

Change the Weather History Date:

Sunday, March 23, 2014

  Actual Average Record
Temperature  
Mean Temperature 42 °F -  
Max Temperature 53 °F 51 °F 62 °F (2006)
Min Temperature 32 °F 41 °F 32 °F (2012)
Degree Days  
Heating Degree Days 22    
Moisture  
Dew Point 38 °F    
Average Humidity 82    
Maximum Humidity 100    
Minimum Humidity 54    
Precipitation  
Precipitation 0.00 in - - ()
Sea Level Pressure  
Sea Level Pressure 30.27 in    
Wind  
Wind Speed 4 mph (NE)    
Max Wind Speed 14 mph    
Max Gust Speed 16 mph    
Visibility 10 miles    
Events      
Averages and records for this station are not official NWS values.
T = Trace of Precipitation, MM = Missing Value Source: NWS Daily Summary

Daily Weather History Graph

Daily Weather History Graph

Search for Another Location

Airport or City:

Astronomy

Mar. 23, 2014 Rise Set
Actual Time 7:13 AM PDT 7:32 PM PDT
Civil Twilight 6:44 AM PDT 8:01 PM PDT
Nautical Twilight 6:10 AM PDT 8:36 PM PDT
Astronomical Twilight 5:35 AM PDT 9:11 PM PDT
Moon 2:06 AM PDT (3/23) 11:49 AM PDT (3/23)
Length of Visible Light 13h 17m
Length of Day
12h 19m
Waning Gibbous, 53% of the Moon is Illuminated
Mar 23
Waning Gibbous
Mar 23
Last Quarter
Mar 30
New
Apr 7
First Quarter
Apr 15
Full

Hourly Weather History & Observations

Time (PDT) Temp. Windchill Dew Point Humidity Pressure Visibility Wind Dir Wind Speed Gust Speed Precip Events Conditions
12:15 AM 33.8 °F - 32.0 °F 93% 30.29 in 10.0 mi Calm Calm - N/A   Clear
12:35 AM 33.8 °F - 32.0 °F 93% 30.29 in 10.0 mi Calm Calm - N/A   Clear
12:55 AM 33.8 °F - 32.0 °F 93% 30.29 in 10.0 mi Calm Calm - N/A   Clear
1:15 AM 33.8 °F - 32.0 °F 93% 30.29 in 10.0 mi Calm Calm - N/A   Clear
1:35 AM 33.8 °F - 32.0 °F 93% 30.29 in 10.0 mi Calm Calm - N/A   Clear
1:55 AM 33.8 °F 30.8 °F 32.0 °F 93% 30.30 in 10.0 mi NE 3.5 mph - N/A   Clear
2:15 AM 37.4 °F 32.8 °F 33.8 °F 87% 30.31 in 10.0 mi NNE 5.8 mph - N/A   Clear
2:35 AM 35.6 °F 31.7 °F 32.0 °F 87% 30.31 in 10.0 mi NE 4.6 mph - N/A   Clear
2:55 AM 33.8 °F 29.6 °F 32.0 °F 93% 30.30 in 10.0 mi East 4.6 mph - N/A   Clear
3:15 AM 35.6 °F 31.7 °F 32.0 °F 87% 30.29 in 10.0 mi East 4.6 mph - N/A   Clear
3:35 AM 33.8 °F 29.6 °F 32.0 °F 93% 30.29 in 10.0 mi East 4.6 mph - N/A   Clear
3:55 AM 33.8 °F 30.8 °F 32.0 °F 93% 30.27 in 10.0 mi East 3.5 mph - N/A   Clear
4:15 AM 33.8 °F 30.8 °F 32.0 °F 93% 30.27 in 10.0 mi East 3.5 mph - N/A   Clear
4:35 AM 32.0 °F 28.7 °F 32.0 °F 100% 30.28 in 10.0 mi East 3.5 mph - N/A   Clear
4:55 AM 33.8 °F - 32.0 °F 93% 30.28 in 10.0 mi Calm Calm - N/A   Clear
5:15 AM 33.8 °F 29.6 °F 32.0 °F 93% 30.28 in 10.0 mi East 4.6 mph - N/A   Clear
5:35 AM 33.8 °F 28.6 °F 32.0 °F 93% 30.29 in 10.0 mi East 5.8 mph - N/A   Clear
5:55 AM 33.8 °F 27.7 °F 32.0 °F 93% 30.29 in 10.0 mi East 6.9 mph - N/A   Clear
6:15 AM 33.8 °F 27.7 °F 32.0 °F 93% 30.30 in 10.0 mi East 6.9 mph - N/A   Clear
6:35 AM 33.8 °F 27.7 °F 32.0 °F 93% 30.31 in 10.0 mi East 6.9 mph - N/A   Clear
6:55 AM 33.8 °F 27.7 °F 32.0 °F 93% 30.31 in 10.0 mi East 6.9 mph - N/A   Clear
7:15 AM 33.8 °F 30.8 °F 32.0 °F 93% 30.31 in 10.0 mi East 3.5 mph - N/A   Clear
7:35 AM 33.8 °F 28.6 °F 32.0 °F 93% 30.31 in 10.0 mi East 5.8 mph - N/A   Clear
7:55 AM 33.8 °F 28.6 °F 32.0 °F 93% 30.31 in 10.0 mi East 5.8 mph - N/A   Clear
8:15 AM 35.6 °F 28.6 °F 32.0 °F 87% 30.31 in 10.0 mi East 9.2 mph - N/A   Clear
8:35 AM 35.6 °F 30.7 °F 33.8 °F 93% 30.31 in 10.0 mi East 5.8 mph - N/A   Clear
8:55 AM 37.4 °F 33.8 °F 33.8 °F 87% 30.30 in 10.0 mi East 4.6 mph - N/A   Clear
9:15 AM 39.2 °F 35.0 °F 35.6 °F 87% 30.30 in 10.0 mi East 5.8 mph - N/A   Clear
9:35 AM 42.8 °F 41.1 °F 35.6 °F 76% 30.31 in 10.0 mi East 3.5 mph - N/A   Clear
9:55 AM 44.6 °F 43.1 °F 35.6 °F 71% 30.31 in 10.0 mi East 3.5 mph - N/A   Clear
10:15 AM 46.4 °F 45.2 °F 35.6 °F 66% 30.32 in 10.0 mi NE 3.5 mph - N/A   Clear
10:35 AM 50.0 °F - 35.6 °F 58% 30.32 in 10.0 mi ENE 4.6 mph - N/A   Clear
10:55 AM 51.8 °F - 37.4 °F 58% 30.32 in 10.0 mi East 4.6 mph - N/A   Clear
11:15 AM 53.6 °F - 37.4 °F 54% 30.31 in 10.0 mi ENE 3.5 mph - N/A   Clear
11:35 AM 53.6 °F - 37.4 °F 54% 30.31 in 10.0 mi Calm Calm - N/A   Clear
11:55 AM 53.6 °F - 37.4 °F 54% 30.31 in 10.0 mi WNW 5.8 mph - N/A   Clear
12:15 PM 53.6 °F - 41.0 °F 62% 30.30 in 10.0 mi NW 9.2 mph - N/A   Clear
12:35 PM 53.6 °F - 39.2 °F 58% 30.31 in 10.0 mi NNW 10.4 mph - N/A   Clear
12:55 PM 51.8 °F - 42.8 °F 71% 30.31 in 10.0 mi NNW 10.4 mph - N/A   Clear
1:15 PM 51.8 °F - 42.8 °F 71% 30.31 in 10.0 mi NNW 11.5 mph - N/A   Clear
1:35 PM 51.8 °F - 42.8 °F 71% 30.31 in 10.0 mi NW 13.8 mph - N/A   Clear
1:55 PM 51.8 °F - 44.6 °F 76% 30.31 in 10.0 mi NNW 13.8 mph - N/A   Clear
2:15 PM 51.8 °F - 44.6 °F 76% 30.30 in 10.0 mi NNW 10.4 mph - N/A   Clear
2:35 PM 53.6 °F - 44.6 °F 72% 30.29 in 10.0 mi NNW 12.7 mph - N/A   Clear
2:55 PM 53.6 °F - 44.6 °F 72% 30.29 in 10.0 mi NNW 12.7 mph - N/A   Clear
3:15 PM 53.6 °F - 44.6 °F 72% 30.28 in 10.0 mi NNW 12.7 mph 16.1 mph N/A   Clear
3:35 PM 53.6 °F - 44.6 °F 72% 30.28 in 10.0 mi NNW 12.7 mph - N/A   Clear
3:55 PM 53.6 °F - 44.6 °F 72% 30.27 in 10.0 mi NNW 11.5 mph - N/A   Clear
4:15 PM 53.6 °F - 42.8 °F 67% 30.26 in 10.0 mi NNW 11.5 mph - N/A   Clear
4:35 PM 53.6 °F - 42.8 °F 67% 30.26 in 10.0 mi NNW 11.5 mph - N/A   Clear
4:55 PM 51.8 °F - 44.6 °F 76% 30.25 in 10.0 mi North 11.5 mph - N/A   Clear
5:15 PM 53.6 °F - 42.8 °F 67% 30.24 in 10.0 mi NNW 12.7 mph - N/A   Clear
5:35 PM 51.8 °F - 42.8 °F 71% 30.24 in 10.0 mi NNW 9.2 mph - N/A   Clear
5:55 PM 51.8 °F - 42.8 °F 71% 30.24 in 10.0 mi North 8.1 mph - N/A   Clear
6:15 PM 51.8 °F - 42.8 °F 71% 30.23 in 10.0 mi NNW 9.2 mph - N/A   Clear
6:35 PM 51.8 °F - 42.8 °F 71% 30.23 in 10.0 mi NNW 9.2 mph - N/A   Clear
6:55 PM 50.0 °F - 42.8 °F 76% 30.22 in 10.0 mi NNW 8.1 mph - N/A   Clear
7:15 PM 50.0 °F - 42.8 °F 76% 30.22 in 7.0 mi NNW 8.1 mph - N/A   Clear
7:35 PM 48.2 °F - 42.8 °F 82% 30.22 in 5.0 mi North 6.9 mph - N/A   Haze
7:55 PM 46.4 °F - 42.8 °F 87% 30.22 in 5.0 mi Calm Calm - N/A   Clear
8:15 PM 42.8 °F - 41.0 °F 93% 30.22 in 7.0 mi Calm Calm - N/A   Clear
8:35 PM 42.8 °F - 41.0 °F 93% 30.22 in 7.0 mi Calm Calm - N/A   Clear
8:55 PM 42.8 °F - 41.0 °F 93% 30.22 in 7.0 mi Calm Calm - N/A   Clear
9:15 PM 41.0 °F 39.0 °F 39.2 °F 93% - 7.0 mi East 3.5 mph - N/A   Clear
9:35 PM 42.8 °F - 41.0 °F 93% 30.21 in 10.0 mi Calm Calm - N/A   Clear
9:55 PM 42.8 °F - 39.2 °F 87% 30.21 in 10.0 mi Calm Calm - N/A   Clear
10:15 PM 42.8 °F - 41.0 °F 93% 30.21 in 10.0 mi Calm Calm - N/A   Clear
10:35 PM 42.8 °F - 39.2 °F 87% 30.20 in 10.0 mi Calm Calm - N/A   Clear
10:55 PM 44.6 °F - 41.0 °F 87% 30.20 in 10.0 mi Calm Calm - N/A   Clear
11:15 PM 42.8 °F - 39.2 °F 87% 30.19 in 10.0 mi Calm Calm - N/A   Clear
11:35 PM 41.0 °F - 39.2 °F 93% 30.19 in 10.0 mi Calm Calm - N/A   Clear
11:55 PM 44.6 °F 40.2 °F 41.0 °F 87% 30.18 in 10.0 mi East 8.1 mph - N/A   Clear